Change the Weather History Date:

Tuesday, January 10, 2006

  Actual Average Record
Temperature  
Mean Temperature 54 °F 50 °F  
Max Temperature 61 °F 56 °F 68 °F (1953)
Min Temperature 46 °F 44 °F 29 °F (1949)
Degree Days  
Heating Degree Days 11 15  
Month to date heating degree days 119 150  
Since 1 July heating degree days 997 1160  
Cooling Degree Days 0 0  
Month to date cooling degree days 0 0  
Year to date cooling degree days 0 0  
Moisture  
Dew Point 47 °F    
Average Humidity 89    
Maximum Humidity 100    
Minimum Humidity 77    
Precipitation  
Precipitation 0.00 in 0.15 in 1.23 in (1950)
Month to date precipitation 1.25 1.39  
Year to date precipitation 1.25 1.39  
Since 1 July precipitation 11.98 8.96  
Snow  
Snow 0.00 in - 0.00 in ()
Month to date snowfall 0.0  
Since 1 July snowfall 0.0  
Snow Depth 0.00 in    
Sea Level Pressure  
Sea Level Pressure 30.23 in    
Wind  
Wind Speed 3 mph (East)    
Max Wind Speed 9 mph    
Max Gust Speed 15 mph    
Visibility 6 miles    
Events      
T = Trace of Precipitation, MM = Missing Value Source: NWS Daily Summary

Daily Weather History Graph

Daily Weather History Graph

Search for Another Location

Airport or City:

Trip Planner

Search our weather history database for the weather conditions in past years. The results will help you decide how hot, cold, wet, or windy it might be!

Date:

Astronomy

Jan. 10, 2006 Rise Set
Actual Time 7:24 AM PST 5:09 PM PST
Civil Twilight 6:55 AM PST 5:38 PM PST
Nautical Twilight 6:23 AM PST 6:11 PM PST
Astronomical Twilight 5:51 AM PST 6:42 PM PST
Moon 1:52 PM PST (1/10) 4:27 AM PST (1/10)
Length of Visible Light 10h 43m
Length of Day
9h 45m
Waxing Gibbous, 88% of the Moon is Illuminated
Jan 10
Waxing Gibbous
Jan 14
Full
Jan 22
Last Quarter
Jan 29
New
Feb 4
First Quarter

Hourly Weather History & Observations

Time (PST) Temp. Windchill Dew Point Humidity Pressure Visibility Wind Dir Wind Speed Gust Speed Precip Events Conditions
12:34 AM 50.0 °F - 46.4 °F 87% 30.30 in 10.0 mi Calm Calm - N/A   Mostly Cloudy
12:56 AM 51.1 °F - 48.0 °F 89% 30.29 in 10.0 mi WNW 3.5 mph - N/A   Mostly Cloudy
1:53 AM 50.0 °F - 46.4 °F 87% 30.27 in 10.0 mi East 5.8 mph - N/A   Partly Cloudy
1:56 AM 50.0 °F - 46.9 °F 89% 30.27 in 10.0 mi ESE 6.9 mph - N/A   Partly Cloudy
2:56 AM 46.9 °F - 46.0 °F 97% 30.29 in 10.0 mi WNW 4.6 mph - N/A   Partly Cloudy
3:56 AM 46.9 °F - 45.0 °F 93% 30.27 in 10.0 mi West 3.5 mph - N/A   Partly Cloudy
4:54 AM 48.2 °F - 46.4 °F 93% 30.27 in 10.0 mi ENE 6.9 mph - N/A   Partly Cloudy
4:56 AM 48.0 °F - 46.0 °F 93% 30.27 in 10.0 mi East 6.9 mph - N/A   Partly Cloudy
5:13 AM 48.2 °F - 46.4 °F 93% 30.27 in 10.0 mi East 6.9 mph - N/A   Mostly Cloudy
5:56 AM 46.0 °F 43.9 °F 45.0 °F 96% 30.27 in 10.0 mi South 4.6 mph - N/A   Mostly Cloudy
6:56 AM 46.9 °F - 46.0 °F 97% 30.27 in 8.0 mi Calm Calm - N/A   Overcast
7:03 AM 48.2 °F - 46.4 °F 93% 30.27 in 2.5 mi Calm Calm - N/A   Overcast
7:26 AM 48.2 °F - 46.4 °F 93% 30.27 in 1.0 mi Calm Calm - N/A   Overcast
7:56 AM 48.0 °F - 46.0 °F 93% 30.27 in 3.0 mi Calm Calm - N/A   Overcast
8:56 AM 48.0 °F - 46.0 °F 93% 30.27 in 3.0 mi South 3.5 mph - N/A   Overcast
9:37 AM 48.2 °F - 46.4 °F 93% 30.29 in 2.0 mi North 4.6 mph - N/A   Overcast
9:56 AM 48.0 °F - 46.0 °F 93% 30.28 in 2.5 mi Calm Calm - N/A   Overcast
10:56 AM 48.9 °F - 46.0 °F 90% 30.27 in 2.5 mi NE 3.5 mph - N/A   Overcast
11:56 AM 50.0 °F - 46.9 °F 89% 30.24 in 2.5 mi Calm Calm - N/A   Overcast
12:56 PM 51.1 °F - 48.0 °F 89% 30.21 in 2.5 mi NE 5.8 mph - N/A   Scattered Clouds
1:10 PM 51.8 °F - 48.2 °F 88% 30.20 in 3.0 mi ENE 4.6 mph - N/A   Scattered Clouds
1:21 PM 51.8 °F - 48.2 °F 88% 30.20 in 3.0 mi ENE 4.6 mph - N/A   Scattered Clouds
1:56 PM 51.1 °F - 48.0 °F 89% 30.20 in 3.0 mi ENE 4.6 mph - N/A   Scattered Clouds
2:56 PM 52.0 °F - 48.0 °F 86% 30.20 in 4.0 mi Calm Calm - N/A   Scattered Clouds
3:56 PM 52.0 °F - 48.0 °F 86% 30.19 in 5.0 mi Calm Calm - N/A   Mostly Cloudy
4:56 PM 55.0 °F - 48.9 °F 80% 30.18 in 10.0 mi Calm Calm - N/A   Mostly Cloudy
5:56 PM 53.1 °F - 50.0 °F 89% 30.17 in 8.0 mi ESE 5.8 mph - N/A   Overcast
6:56 PM 53.1 °F - 48.9 °F 86% 30.16 in 6.0 mi SE 8.1 mph - N/A   Overcast
7:56 PM 54.0 °F - 48.0 °F 80% 30.16 in 7.0 mi SE 5.8 mph - N/A   Overcast
8:56 PM 53.1 °F - 50.0 °F 89% 30.19 in 8.0 mi Calm Calm - N/A   Overcast
9:56 PM 53.1 °F - 50.0 °F 89% 30.17 in 8.0 mi ESE 5.8 mph - N/A   Overcast
10:56 PM 53.1 °F - 48.9 °F 86% 30.16 in 8.0 mi ESE 3.5 mph - N/A   Overcast
11:28 PM 53.6 °F - 50.0 °F 88% 30.17 in 8.0 mi Calm Calm - N/A   Overcast
11:56 PM 53.1 °F - 50.0 °F 89% 30.16 in 9.0 mi SE 4.6 mph - N/A   Overcast